W4BOD Weather Reports


time (UTC)temp
C
wind
direction
speed
KPH
gust
KPH
rain 1hr
cm
rain 24hr
cm
rain mn
cm
humidity
%
barometer
mb
20260906114317 23 346 0.0 0.0 0.00 0.00 0.00 96 1013.4
20260906113812 23 346 0.0 0.0 0.00 0.00 0.00 96 1013.1
20260906113312 23 345 0.0 0.0 0.00 0.00 0.00 96 1013.3
20260906112807 23 345 0.0 0.0 0.00 0.00 0.00 96 1013.1
20260906112306 23 344 0.0 0.0 0.00 0.00 0.00 95 1013.1
20260906111803 23 345 0.0 0.0 0.00 0.00 0.00 95 1012.8
20260906111302 23 351 0.0 0.0 0.00 0.00 0.00 95 1012.7
20260906110757 23 351 0.0 0.0 0.00 0.00 0.00 95 1012.6
20260906110253 23 353 0.0 1.6 0.00 0.00 0.00 95 1012.8
20260906105751 23 326 0.0 1.6 0.00 0.00 0.00 95 1012.8
20260906105242 23 334 0.0 0.0 0.00 0.00 0.00 94 1012.6
20260906104737 23 334 0.0 0.0 0.00 0.00 0.00 94 1012.5
20260906104236 23 331 0.0 1.6 0.00 0.00 0.00 93 1012.4
20260906103734 23 345 0.0 0.0 0.00 0.00 0.00 93 1012.5
20260906103228 23 333 0.0 1.6 0.00 0.00 0.00 93 1012.7
20260906102724 23 345 0.0 0.0 0.00 0.00 0.00 92 1012.5
20260906102223 23 310 1.6 1.6 0.00 0.00 0.00 92 1012.5
20260906101718 23 321 1.6 1.6 0.00 0.00 0.00 92 1012.5
20260906101213 23 7 1.6 1.6 0.00 0.00 0.00 92 1012.5
20260906100709 23 345 0.0 0.0 0.00 0.00 0.00 92 1012.7
20260906100209 23 346 0.0 0.0 0.00 0.00 0.00 91 1012.4
20260906095704 23 344 0.0 0.0 0.00 0.00 0.00 90 1012.4
20260906095159 24 345 0.0 1.6 0.00 0.00 0.00 89 1012.3
20260906094657 24 351 0.0 0.0 0.00 0.00 0.00 89 1012.5
20260906094153 24 333 0.0 1.6 0.00 0.00 0.00 89 1012.4
20260906093649 24 340 0.0 1.6 0.00 0.00 0.00 89 1012.4
20260906093144 24 329 0.0 1.6 0.00 0.00 0.00 89 1012.5
20260906092639 24 313 1.6 3.2 0.00 0.00 0.00 89 1012.6
20260906092139 24 359 0.0 1.6 0.00 0.00 0.00 89 1012.2
20260906091635 24 2 0.0 1.6 0.00 0.00 0.00 89 1012.4
20260906091132 24 321 0.0 1.6 0.00 0.00 0.00 89 1012.4
20260906090627 23 288 1.6 4.8 0.00 0.00 0.00 89 1012.4
20260906090126 23 345 1.6 1.6 0.00 0.00 0.00 91 1012.4
20260906085626 24 343 0.0 0.0 0.00 0.00 0.00 90 1012.5
20260906085120 24 341 1.6 1.6 0.00 0.00 0.00 89 1012.5
20260906084615 24 329 0.0 1.6 0.00 0.00 0.00 89 1012.5
20260906084114 24 330 0.0 0.0 0.00 0.00 0.00 89 1012.2
20260906083610 24 322 0.0 1.6 0.00 0.00 0.00 88 1012.3
20260906083109 24 337 0.0 0.0 0.00 0.00 0.00 88 1012.5
20260906082605 24 335 0.0 1.6 0.00 0.00 0.00 88 1012.2
20260906082101 24 331 0.0 0.0 0.00 0.00 0.00 88 1012.5
20260906081556 24 335 0.0 0.0 0.00 0.00 0.00 87 1012.2
20260906081051 24 325 0.0 0.0 0.00 0.00 0.00 86 1012.2
20260906080548 25 323 0.0 1.6 0.00 0.00 0.00 86 1012.3
20260906080043 25 338 0.0 1.6 0.00 0.00 0.00 85 1012.2
20260906075537 25 334 0.0 1.6 0.00 0.00 0.00 85 1012.0
20260906075032 25 174 3.2 3.2 0.00 0.00 0.00 85 1012.3
20260906074527 25 226 4.8 4.8 0.00 0.00 0.00 84 1012.3
20260906074025 25 286 4.8 9.7 0.00 0.00 0.00 84 1012.3
20260906073521 25 316 1.6 1.6 0.00 0.00 0.00 83 1012.1
20260906073017 25 279 1.6 1.6 0.00 0.00 0.00 83 1012.3
20260906072511 25 310 1.6 3.2 0.00 0.00 0.00 83 1012.3
20260906072008 25 318 1.6 1.6 0.00 0.00 0.00 82 1012.1
20260906071504 25 307 1.6 3.2 0.00 0.00 0.00 82 1012.4
20260906070959 25 311 1.6 3.2 0.00 0.00 0.00 82 1012.5
20260906070455 25 311 1.6 3.2 0.00 0.00 0.00 81 1012.5
20260906065950 25 296 3.2 3.2 0.00 0.00 0.00 81 1012.6
20260906065449 25 323 0.0 1.6 0.00 0.00 0.00 81 1012.4
20260906064945 26 322 0.0 1.6 0.00 0.00 0.00 81 1012.5
20260906064441 26 308 1.6 3.2 0.00 0.00 0.00 80 1012.5
20260906063936 26 217 3.2 4.8 0.00 0.00 0.00 80 1012.4
20260906063432 26 325 0.0 3.2 0.00 0.00 0.00 80 1012.4
20260906062926 26 189 3.2 3.2 0.00 0.00 0.00 79 1012.6
20260906062421 26 268 4.8 4.8 0.00 0.00 0.00 79 1012.6
20260906061916 26 321 3.2 4.8 0.00 0.00 0.00 79 1012.6
20260906061412 26 274 1.6 3.2 0.00 0.00 0.00 80 1012.7
20260906060906 26 252 3.2 4.8 0.00 0.00 0.00 81 1012.7
20260906060404 26 210 4.8 4.8 0.00 0.00 0.00 83 1012.9
20260906055900 26 113 3.2 4.8 0.00 0.00 0.00 84 1013.2
20260906055355 26 92 3.2 4.8 0.00 0.00 0.00 84 1013.4
20260906054850 26 169 3.2 3.2 0.00 0.00 0.00 84 1013.5
20260906054345 26 152 3.2 8.0 0.00 0.00 0.00 84 1013.6
20260906053841 26 223 3.2 8.0 0.00 0.00 0.00 84 1013.5
20260906053337 26 9 0.0 3.2 0.00 0.00 0.00 85 1013.3
20260906052832 26 337 1.6 3.2 0.00 0.00 0.00 85 1013.4
20260906052329 26 250 8.0 9.7 0.00 0.00 0.00 84 1013.4
20260906051825 26 316 1.6 3.2 0.00 0.00 0.00 84 1013.4
20260906051325 27 114 1.6 4.8 0.00 0.00 0.00 83 1013.4
20260906050821 26 127 4.8 11.3 0.00 0.00 0.00 83 1013.4
20260906050316 27 105 3.2 3.2 0.00 0.00 0.00 83 1013.4
20260906045814 26 31 1.6 3.2 0.00 0.05 0.05 82 1013.3
20260906045309 26 302 1.6 1.6 0.00 0.05 0.05 82 1013.4
20260906044805 27 20 0.0 1.6 0.00 0.05 0.05 81 1013.6
20260906044300 27 19 0.0 3.2 0.00 0.05 0.05 80 1013.4
20260906043755 27 35 4.8 11.3 0.00 0.05 0.05 79 1013.5
20260906043252 27 63 3.2 3.2 0.00 0.05 0.05 85 1013.5
20260906042751 27 154 8.0 17.7 0.00 0.05 0.05 85 1013.7
20260906042250 27 0 0.0 0.0 0.00 0.05 0.05 84 1012.8
20260906041746 27 349 0.0 0.0 0.00 0.05 0.05 85 1012.7
20260906041241 27 224 1.6 3.2 0.00 0.05 0.05 85 1012.7
20260906040736 27 21 1.6 3.2 0.00 0.05 0.05 86 1012.7
20260906040231 27 337 0.0 1.6 0.00 0.05 0.05 87 1012.7
20260906035727 27 352 1.6 1.6 0.00 0.05 0.05 87 1012.9
20260906035223 27 25 1.6 3.2 0.00 0.05 0.05 87 1012.6
20260906034722 27 340 0.0 1.6 0.00 0.05 0.05 86 1012.9
20260906034217 27 294 1.6 1.6 0.00 0.05 0.05 87 1012.9
20260906033713 27 3 0.0 3.2 0.00 0.05 0.05 87 1012.9
20260906033213 27 347 0.0 1.6 0.00 0.05 0.05 87 1013.1
20260906032710 27 273 3.2 3.2 0.00 0.05 0.05 86 1012.9
20260906032209 27 340 0.0 0.0 0.00 0.05 0.05 85 1013.4
20260906031705 27 4 0.0 1.6 0.00 0.05 0.05 84 1013.1
20260906031200 26 2 3.2 9.7 0.00 0.05 0.05 85 1012.9
20260906030659 26 359 1.6 9.7 0.00 0.05 0.05 90 1012.9
20260906030155 26 349 3.2 3.2 0.00 0.05 0.05 92 1012.2
20260906025654 26 337 0.0 0.0 0.00 0.05 0.05 91 1012.3
20260906025148 26 357 0.0 1.6 0.00 0.05 0.05 91 1012.3
20260906024642 26 346 1.6 1.6 0.00 0.05 0.05 91 1012.2
20260906024136 26 312 1.6 3.2 0.00 0.05 0.05 90 1012.2
20260906023633 26 358 1.6 1.6 0.00 0.05 0.05 88 1011.8
20260906023132 27 6 1.6 1.6 0.00 0.05 0.05 85 1011.9
20260906022627 26 304 1.6 3.2 0.00 0.05 0.05 86 1011.6
20260906022123 25 331 0.0 3.2 0.00 0.05 0.05 90 1011.8
20260906021619 26 283 3.2 4.8 0.00 0.05 0.05 92 1011.7
20260906021117 26 336 1.6 1.6 0.00 0.05 0.05 88 1011.6
20260906020617 26 337 0.0 1.6 0.00 0.05 0.05 86 1011.9
20260906020112 27 337 0.0 0.0 0.30 0.05 0.05 85 1011.5
20260906015607 28 336 1.6 1.6 0.18 0.03 0.03 82 1011.7
20260906015105 28 15 3.2 3.2 0.00 0.00 0.00 78 1011.7
20260906014600 30 50 1.6 3.2 0.00 0.00 0.00 71 1011.6
20260906014056 30 17 3.2 4.8 0.00 0.00 0.00 70 1011.4
20260906013551 30 17 4.8 8.0 0.00 0.00 0.00 68 1011.5
20260906013047 29 273 1.6 4.8 0.00 0.00 0.00 69 1011.3
20260906012542 29 276 4.8 8.0 0.00 0.00 0.00 70 1011.2
20260906012041 28 256 3.2 3.2 0.00 0.00 0.00 72 1011.3
20260906011538 28 281 1.6 3.2 0.00 0.00 0.00 72 1011.3
20260906011037 28 311 1.6 1.6 0.00 0.00 0.00 72 1011.5
20260906010533 29 338 0.0 0.0 0.00 0.00 0.00 71 1011.4
20260906010029 29 323 0.0 1.6 0.00 0.00 0.00 71 1011.0
20260906005528 29 353 0.0 0.0 0.00 0.00 0.00 70 1011.0
20260906005027 29 322 1.6 1.6 0.00 0.00 0.00 70 1011.1
20260906004526 30 339 0.0 1.6 0.00 0.00 0.00 70 1011.1
20260906004022 30 295 1.6 3.2 0.00 0.00 0.00 69 1011.1
20260906003517 30 30 1.6 3.2 0.00 0.00 0.00 67 1011.3
20260906003013 30 15 1.6 1.6 0.00 0.00 0.00 67 1011.6
20260906002507 30 294 1.6 3.2 0.00 0.00 0.00 67 1011.6
20260906002002 31 58 1.6 3.2 0.00 0.00 0.00 67 1011.9
20260906001458 31 57 1.6 8.0 0.00 0.00 0.00 67 1011.8
20260906000952 31 16 1.6 8.0 0.00 0.00 0.00 66 1011.5
20260906000448 32 307 1.6 3.2 0.00 0.00 0.00 68 1011.6
20260905235941 32 317 4.8 11.3 0.00 0.00 0.00 66 1011.9
20260905235436 33 40 4.8 9.7 0.00 0.00 0.00 66 1011.7
20260905234931 33 79 4.8 9.7 0.00 0.00 0.00 66 1011.4
20260905234427 34 33 1.6 12.9 0.00 0.00 0.00 66 1011.2
20260905233921 35 68 3.2 4.8 0.00 0.00 0.00 63 1011.4
20260905233417 35 353 0.0 0.0 0.00 0.00 0.00 63 1011.0
20260905232915 35 312 0.0 1.6 0.00 0.00 0.00 63 1010.8
20260905232412 35 316 1.6 1.6 0.00 0.00 0.00 63 1010.8
20260905231906 35 347 0.0 1.6 0.00 0.00 0.00 63 1010.9
20260905231402 35 293 1.6 3.2 0.00 0.00 0.00 64 1010.8
20260905230853 35 16 1.6 1.6 0.00 0.00 0.00 67 1010.6
20260905230350 35 266 1.6 3.2 0.00 0.00 0.00 62 1010.6
20260905225850 35 2 0.0 1.6 0.00 0.00 0.00 63 1010.5
20260905225345 35 31 1.6 1.6 0.00 0.00 0.00 61 1010.6
20260905224840 36 315 0.0 1.6 0.00 0.00 0.00 61 1010.9
20260905224335 36 285 1.6 3.2 0.00 0.00 0.00 59 1010.8
20260905223830 37 170 1.6 3.2 0.00 0.00 0.00 55 1010.9
20260905223327 37 314 1.6 4.8 0.00 0.00 0.00 56 1010.8
20260905222817 37 6 1.6 3.2 0.00 0.00 0.00 54 1010.8
20260905222316 37 338 0.0 8.0 0.00 0.00 0.00 54 1010.8
20260905221812 37 43 1.6 8.0 0.00 0.00 0.00 53 1010.6
20260905221309 38 10 4.8 4.8 0.00 0.00 0.00 51 1010.8
20260905220804 38 346 1.6 1.6 0.00 0.00 0.00 47 1010.6
20260905220300 38 323 1.6 1.6 0.00 0.00 0.00 48 1010.6
20260905215759 38 345 0.0 1.6 0.00 0.00 0.00 49 1010.7
20260905215255 38 311 1.6 1.6 0.00 0.00 0.00 52 1010.7
20260905214751 38 297 1.6 4.8 0.00 0.00 0.00 47 1010.5
20260905214247 38 320 0.0 3.2 0.00 0.00 0.00 49 1010.7
20260905213742 38 318 1.6 1.6 0.00 0.00 0.00 52 1010.7
20260905213238 38 295 3.2 4.8 0.00 0.00 0.00 52 1010.7
20260905212733 38 14 1.6 1.6 0.00 0.00 0.00 49 1010.6
20260905212232 38 317 0.0 3.2 0.00 0.00 0.00 50 1010.9
20260905211731 38 303 1.6 3.2 0.00 0.00 0.00 48 1010.9
20260905211227 36 304 0.0 3.2 0.00 0.00 0.00 53 1010.9
20260905210724 37 272 3.2 8.0 0.00 0.00 0.00 51 1011.2
20260905210223 38 287 1.6 1.6 0.00 0.00 0.00 47 1010.9
20260905205722 38 310 1.6 8.0 0.00 0.00 0.00 48 1011.1
20260905205216 38 326 1.6 3.2 0.00 0.00 0.00 48 1011.2
20260905204716 38 344 1.6 12.9 0.00 0.00 0.00 47 1011.2
20260905204212 39 292 1.6 4.8 0.00 0.00 0.00 45 1011.1
20260905203706 39 225 8.0 11.3 0.00 0.00 0.00 46 1011.2
20260905203202 38 319 0.0 3.2 0.00 0.00 0.00 50 1011.3
20260905202657 39 356 3.2 4.8 0.00 0.00 0.00 46 1011.5
20260905202152 39 355 1.6 1.6 0.00 0.00 0.00 45 1011.4
20260905201648 38 321 3.2 3.2 0.00 0.00 0.00 46 1011.6
20260905201147 37 268 3.2 4.8 0.00 0.00 0.00 49 1011.4
20260905200643 37 315 1.6 3.2 0.00 0.00 0.00 49 1011.7
20260905200138 37 320 0.0 3.2 0.00 0.00 0.00 50 1011.8
20260905195636 38 304 1.6 8.0 0.00 0.00 0.00 50 1011.9
20260905195132 38 239 6.4 9.7 0.00 0.00 0.00 49 1011.9
20260905194626 37 317 0.0 4.8 0.00 0.00 0.00 48 1012.2
20260905194126 38 323 1.6 9.7 0.00 0.00 0.00 50 1012.2
20260905193621 38 307 3.2 3.2 0.00 0.00 0.00 48 1012.1
20260905193116 38 336 4.8 12.9 0.00 0.00 0.00 52 1012.2
20260905192612 37 260 4.8 9.7 0.00 0.00 0.00 51 1012.1
20260905192108 37 320 3.2 9.7 0.00 0.00 0.00 53 1012.1
20260905191606 37 213 4.8 4.8 0.00 0.00 0.00 53 1012.3
20260905191105 37 237 1.6 3.2 0.00 0.00 0.00 52 1012.4
20260905190604 37 267 4.8 8.0 0.00 0.00 0.00 53 1012.6
20260905185602 36 345 3.2 4.8 0.00 0.00 0.00 53 1012.6
20260905185056 36 202 6.4 9.7 0.00 0.00 0.00 53 1012.5
20260905184551 37 291 8.0 8.0 0.00 0.00 0.00 51 1012.7
20260905184049 38 251 1.6 9.7 0.00 0.00 0.00 54 1012.8
20260905183544 37 147 4.8 9.7 0.00 0.00 0.00 56 1012.7
20260905183039 37 267 4.8 9.7 0.00 0.00 0.00 61 1013.1
20260905182538 36 265 6.4 8.0 0.00 0.00 0.00 57 1013.1
20260905182033 36 297 4.8 12.9 0.00 0.00 0.00 58 1013.3
20260905181528 37 271 4.8 11.3 0.00 0.00 0.00 57 1013.4
20260905181027 36 285 3.2 4.8 0.00 0.00 0.00 58 1013.4
20260905180521 37 268 4.8 8.0 0.00 0.00 0.00 57 1013.2
20260905180012 37 261 8.0 11.3 0.00 0.00 0.00 56 1013.5
20260905175511 36 263 6.4 11.3 0.00 0.00 0.00 58 1013.5
20260905175007 36 255 4.8 8.0 0.00 0.00 0.00 59 1013.5
20260905174502 37 283 1.6 3.2 0.00 0.00 0.00 57 1013.6
20260905173957 37 344 0.0 1.6 0.00 0.00 0.00 58 1013.6
20260905173453 36 323 1.6 4.8 0.00 0.00 0.00 61 1013.6
20260905172949 36 257 4.8 8.0 0.00 0.00 0.00 62 1013.9
20260905172447 36 295 3.2 8.0 0.00 0.00 0.00 62 1014.0
20260905171943 36 352 0.0 3.2 0.00 0.00 0.00 59 1014.0
20260905171439 36 21 1.6 3.2 0.00 0.00 0.00 60 1013.9
20260905170935 35 315 0.0 3.2 0.00 0.00 0.00 63 1014.0
20260905170431 35 258 8.0 9.7 0.00 0.00 0.00 67 1014.1
20260905165931 35 248 4.8 9.7 0.00 0.00 0.00 65 1014.1
20260905165426 35 303 1.6 8.0 0.00 0.00 0.00 63 1014.1
20260905164920 35 311 1.6 4.8 0.00 0.00 0.00 64 1014.3
20260905164414 35 275 1.6 4.8 0.00 0.00 0.00 64 1014.1
20260905163910 35 254 3.2 3.2 0.00 0.00 0.00 66 1014.5
20260905163407 33 309 1.6 8.0 0.00 0.00 0.00 69 1014.5
20260905162902 33 270 3.2 4.8 0.00 0.00 0.00 68 1014.6
20260905162356 33 297 1.6 3.2 0.00 0.00 0.00 69 1014.6
20260905161851 33 249 8.0 9.7 0.00 0.00 0.00 69 1014.7
20260905161350 33 327 0.0 0.0 0.00 0.00 0.00 69 1014.6
20260905160849 33 344 0.0 4.8 0.00 0.00 0.00 69 1014.9
20260905160343 33 292 4.8 4.8 0.00 0.00 0.00 68 1014.8
20260905155837 32 4 1.6 1.6 0.00 0.00 0.00 70 1014.9
20260905155336 32 293 3.2 4.8 0.00 0.00 0.00 74 1015.1
20260905154831 32 277 3.2 8.0 0.00 0.00 0.00 73 1015.0
20260905154326 32 324 1.6 4.8 0.00 0.00 0.00 74 1015.1
20260905153822 31 110 1.6 3.2 0.00 0.00 0.00 77 1015.1
20260905153318 30 223 3.2 3.2 0.00 0.00 0.00 80 1015.2
20260905152818 30 278 4.8 4.8 0.00 0.00 0.00 81 1015.3
20260905152317 30 282 0.0 3.2 0.00 0.00 0.00 81 1015.2
20260905151812 30 315 1.6 3.2 0.00 0.00 0.00 83 1015.1
20260905151307 30 316 1.6 1.6 0.00 0.00 0.00 86 1015.1
20260905150802 29 309 1.6 1.6 0.00 0.00 0.00 87 1015.3
20260905150302 28 304 1.6 3.2 0.00 0.00 0.00 89 1015.1
20260905145759 28 345 0.0 3.2 0.00 0.00 0.00 89 1015.1
20260905145254 28 342 0.0 1.6 0.00 0.00 0.00 90 1015.3
20260905144752 28 291 3.2 3.2 0.00 0.00 0.00 89 1015.2
20260905144248 28 328 0.0 1.6 0.00 0.00 0.00 90 1015.2
20260905143746 28 338 0.0 0.0 0.00 0.00 0.00 90 1015.1
20260905143241 28 339 1.6 1.6 0.00 0.00 0.00 90 1015.2
20260905142740 28 325 0.0 3.2 0.00 0.00 0.00 91 1015.5
20260905142234 28 312 1.6 3.2 0.00 0.00 0.00 91 1015.5
20260905141730 28 328 0.0 1.6 0.00 0.00 0.00 91 1015.4
20260905141225 28 325 0.0 1.6 0.00 0.00 0.00 91 1015.2
20260905140721 28 334 0.0 1.6 0.00 0.00 0.00 92 1015.4
20260905140215 27 345 0.0 0.0 0.00 0.00 0.00 92 1015.3
20260905135709 27 347 0.0 0.0 0.00 0.00 0.00 92 1015.3
20260905135206 27 333 0.0 0.0 0.00 0.00 0.00 92 1015.4
20260905134704 27 333 0.0 0.0 0.00 0.00 0.00 93 1015.2
20260905134204 27 333 0.0 0.0 0.00 0.00 0.00 93 1015.2
20260905133659 27 334 0.0 0.0 0.00 0.00 0.00 93 1015.3
20260905133154 27 330 0.0 0.0 0.00 0.00 0.00 93 1015.4
20260905132653 27 330 0.0 0.0 0.00 0.00 0.00 93 1015.4
20260905132149 27 330 0.0 0.0 0.00 0.00 0.00 94 1015.3
20260905131644 27 328 0.0 0.0 0.00 0.00 0.00 94 1015.4
20260905131138 26 330 0.0 0.0 0.00 0.00 0.00 95 1015.5
20260905130632 26 329 0.0 1.6 0.00 0.00 0.00 95 1015.4
20260905130126 26 341 0.0 0.0 0.00 0.00 0.00 96 1015.5
20260905125621 26 340 0.0 0.0 0.00 0.00 0.00 97 1015.4
20260905125117 26 335 0.0 0.0 0.00 0.00 0.00 98 1015.4
20260905124613 26 335 0.0 0.0 0.00 0.00 0.00 98 1015.4
20260905124108 26 335 0.0 0.0 0.00 0.00 0.00 99 1015.3
20260905123558 26 335 0.0 0.0 0.00 0.00 0.00 99 1015.4
20260905123055 25 335 0.0 0.0 0.00 0.00 0.00 99 1015.2
20260905122555 25 3 0.0 0.0 0.00 0.00 0.00 99 1015.3
20260905122055 25 3 0.0 0.0 0.00 0.00 0.00 99 1015.3
20260905121550 25 3 0.0 0.0 0.00 0.00 0.00 99 1015.1
20260905121045 25 3 0.0 0.0 0.00 0.00 0.00 99 1015.1
20260905120544 25 3 0.0 0.0 0.00 0.00 0.00 99 1015.2
20260905120040 25 3 0.0 0.0 0.00 0.00 0.00 99 1015.0
20260905115538 25 3 0.0 0.0 0.00 0.00 0.00 99 1015.1
20260905115033 25 3 0.0 0.0 0.00 0.00 0.00 99 1015.1
20260905114533 25 3 0.0 0.0 0.00 0.00 0.00 99 1014.9